Location: Baia Mare
(47.6567°N, 23.5850°E)
Time: 10:38:19
(UTC+03:00)

ISS - Pass Details

Date: 16 March 2018
Orbit: 403 x 408 km, 51.6° (Epoch: 21 September)

Event Time Altitude Azimuth Distance (km) Brightness Sun altitude
Exits shadow 04:37:29 72° 16° (NNE) 440 -3.7 -20.6°
Maximum altitude 04:37:30 72° 21° (NNE) 440 -3.7 -20.6°
Drops below altitude 10° 04:40:50 10° 106° (ESE) 1,482 -0.2 -20.1°
Sets 04:42:55 0° 109° (ESE) 2,338 0.9 -19.8°
